{"data":{"norad_id":40043,"intl_designator":"2014-033AK","name":"TIGRISAT","alt_names":[],"object_type":"PAYLOAD","status":"ACTIVE","operator":null,"country":"IRAQ","launch_date":"2014-06-19","launch_site_code":"DLS","launch_vehicle":null,"mission":null,"orbit_class":"UNKNOWN","rcs_meters":0.06,"size_class":null,"mass_kg":null,"dimensions":null,"purposes":["tech_demo"],"wikipedia_slug":null,"has_3d_model":false,"image_url":null,"decayed_at":null,"tle_current":{"epoch":"2026-09-19T08:43:02.918208Z","epoch_age_seconds":116559,"freshness":"FRESH","line1":"1 40043U 14033AK  26262.36322822  .00001451  00000+0  17091-3 0  9999","line2":"2 40043  97.7966  50.3110 0050084 124.7244 235.8703 14.85446619659600","mean_motion":14.85446619,"eccentricity":0.0050084,"inclination_deg":97.7966,"raan_deg":50.311,"arg_perigee_deg":124.7244,"mean_anomaly_deg":235.8703,"bstar":0.00017091,"rev_number":65960,"period_min":96.940541759044,"perigee_km":577.17403336821,"apogee_km":647.19468435565,"semimajor_km":6990.3213588619,"source":"CELESTRAK","updated_at":"2026-09-20T09:00:48.026302Z"}}}